FENGYUN 2G

Last updated on Wed Mar 11 2026 00:02:26 GMT+0000 (Coordinated Universal Time)

1 40367U 14090A 26069.52351019 -.00000301 00000+0 00000+0 0 9996 2 40367 5.3888 74.0099 0001505 141.9325 240.4260 1.00272562 41018
UTC large
Height (km)
Speed (km/s)
/
Latitude / Longitude
Inclination (degrees)
Orbital Period (minutes)
Azimuth
Elevation
Range (km)
Doppler Factor

Next 0 passes for location: London (51.5072 / 0.1276)

Sorry there are no passes over London.